Regional Weather Roundup
Issued by NWS

Home | Current Version | Previous Version | Graphics & Text | Print | Product List | Glossary On
Versions: 1 2 3 4 5 6 7 8 9 10 11 12 13 14 15 16 17 18 19 20 21 22 23 24 25 26 27 28 29 30 31 32 33 34 35 36 37 38 39 40 41 42 43 44 45 46 47 48 49 50
000
ASUS43 KBIS 200210
RWRND

NORTH DAKOTA REGIONAL WEATHER ROUNDUP
NATIONAL WEATHER SERVICE BISMARCK ND
800 PM CST SUN NOV 19 2017

NOTE: "FAIR" INDICATES FEW OR NO CLOUDS BELOW 12,000 FEET WITH NO
SIGNIFICANT WEATHER AND/OR OBSTRUCTIONS TO VISIBILITY.


NDZ001>003-009>011-017-200300-
NORTHWEST NORTH DAKOTA

CITY           SKY/WX    TMP DP  RH WIND       PRES   REMARKS
WILLISTON      CLOUDY    30  21  69 S5        29.60F
MINOT          CLOUDY    35  24  64 S9        29.60F
MINOT AFB      CLOUDY    26  21  83 S7        29.59F WCI  18
$$

NDZ018>021-031>035-040>046-200300-
SOUTHWEST NORTH DAKOTA

CITY           SKY/WX    TMP DP  RH WIND       PRES   REMARKS
BISMARCK       CLOUDY    32  24  72 CALM      29.72S
DICKINSON      CLOUDY    30  19  63 S9        29.63F
GARRISON         N/A     30  25  81 S6        29.65F
HETTINGER ARPT CLOUDY    35  19  52 S8        29.70F
$$

NDZ004>008-012>016-024-026-027-054-200300-
NORTHEAST NORTH DAKOTA

CITY           SKY/WX    TMP DP  RH WIND       PRES   REMARKS
GRAND FORKS    CLOUDY    20  19  96 CALM      29.73F FOG
GRND FRKS AFB  CLOUDY    16  15  93 CALM      29.73F
DEVILS LAKE    CLOUDY    23  21  92 S3        29.69F
$$

NDZ022-023-025-028>030-036>039-047>053-200300-
SOUTHEAST NORTH DAKOTA

CITY           SKY/WX    TMP DP  RH WIND       PRES   REMARKS
FARGO          CLOUDY    28  23  81 CALM      29.75F
JAMESTOWN      CLOUDY    28  22  78 S5        29.71F
$$





USA.gov is the U.S. government's official web portal to all federal, state and local government web resources and services.